[[{"header":{"parameterUnit":"m.s-1","parameterCategory":1,"la1":30.2991,"la2":30.254,"lo1":-89.0895,"lo2":-89.0444,"dy":0.0017,"dx":0.0017,"nx":28,"ny":28,"refTime":"2024-08-15T09:00:00:Z","depth":0,"parameterNumber":2,"parameterNumberName":"U-component_of_WINDS"},"data":[0,0,0,0,0,0,0,0,0,0,0,0,0,0,0,0,0,0,0,0,0,0,0,0,0,0,0,0,0,0,0,0,0,0,0,0,0,0,0,0,0,0,0,0,0,0,0,0,0,0,0,0,0,0,0,0,0,0,0.4361,0.4361,0,0.4322,0.4322,0.4321,0.4327,0.4328,0.4329,0.4329,0.4287,0.4285,0.4283,0,0,0,0,0,0,0,0,0,0,0,0,0,0.4439,0.4438,0.4361,0.4361,0.436,0.4322,0.4322,0.4321,0.4327,0.4328,0.4329,0.433,0.4287,0.4285,0.4283,0,0,0,0,0,0,0,0,0,0,0,0,0,0.4403,0.4437,0.4361,0.4359,0.4358,0.4322,0.4322,0.4321,0.4327,0.4328,0.4329,0.433,0.4288,0.4285,0.4283,0.4246,0,0,0.4275,0.4274,0,0,0,0,0,0,0,0,0.4405,0.44,0.4359,0.4359,0.4358,0.4331,0.4334,0.4296,0.4327,0.4339,0.4329,0.433,0.43,0.4297,0.4287,0.4245,0.4243,0.4275,0.4273,0.4272,0.4271,0,0,0,0,0,0,0,0.4408,0.4402,0.4346,0.4359,0.4358,0.4359,0.4355,0.4327,0.4314,0.4338,0.4338,0.4334,0.43,0.429,0.4286,0.4242,0.4275,0.4272,0.4271,0.427,0.4169,0.4168,0,0,0,0,0,0,0.4411,0.4404,0.4347,0.4344,0.4385,0.4357,0.4352,0.4338,0.4315,0.4312,0.4333,0.4334,0.4294,0.4289,0.4285,0.4241,0.4272,0.4269,0.4268,0.417,0.4169,0.4168,0,0,0,0,0,0,0.4413,0.4406,0.4348,0.4374,0.4367,0.4354,0.4339,0.4337,0.4327,0.4311,0.4309,0.4324,0.4294,0.4288,0.4256,0.424,0.4268,0.4266,0.4171,0.417,0.4168,0.4153,0,0,0,0,0,0,0.4415,0.4407,0.4393,0.4374,0.4366,0.4321,0.4338,0.4336,0.4322,0.4324,0.4302,0.43,0.4295,0.426,0.4254,0.4237,0.4264,0.4173,0.4171,0.4169,0.4155,0.4151,0.4148,0,0,0,0,0,0.4418,0.4389,0.4392,0.4385,0.4348,0.432,0.4315,0.431,0.4321,0.4307,0.4297,0.4301,0.4243,0.4257,0.425,0.4231,0.4174,0.4171,0.4169,0.4157,0.4152,0.4148,0,0,0,0,0,0,0.4405,0.4387,0.439,0.4354,0.4339,0.4321,0.4303,0.4305,0.4286,0.4288,0.4282,0.4277,0.4245,0.4235,0.4251,0.4196,0.421,0.4206,0.4203,0.4198,0.4195,0.4197,0.4262,0,0,0,0,0,0.4398,0.4377,0.4362,0.4332,0.4325,0.4315,0.4303,0.4301,0.4284,0.4277,0.4265,0.4248,0.4227,0.4212,0.4191,0.4154,0.415,0.4138,0.4135,0.4132,0.4128,0.4109,0.4103,0.416,0.416,0.416,0,0,0.4383,0.4371,0.4357,0.4329,0.4317,0.4295,0.4309,0.4285,0.4269,0.4273,0.4243,0.4233,0.4214,0.418,0.4164,0.4171,0.4112,0.4129,0.4127,0.4124,0.4106,0.41,0.4096,0.4158,0.4158,0.4158,0,0,0.4345,0.4333,0.4308,0.4296,0.4278,0.4272,0.4266,0.4249,0.4243,0.4213,0.4216,0.4196,0.4159,0.4146,0.4134,0.4093,0.4096,0.4087,0.4067,0.4049,0.4044,0.404,0.4026,0.4021,0.4083,0.4083,0.4083,0,0.4328,0.4296,0.4294,0.427,0.4258,0.4263,0.4236,0.4225,0.42,0.4192,0.42,0.4154,0.4142,0.4105,0.4095,0.4086,0.4079,0.4088,0.4045,0.4041,0.4037,0.4024,0.4018,0.4082,0.4082,0.4083,0.4083,0,0.4276,0.4254,0.4235,0.4214,0.4199,0.4174,0.4168,0.4154,0.4155,0.4148,0.4118,0.4103,0.408,0.4072,0.4071,0.4035,0.404,0.4047,0.406,0.4031,0.4018,0.4013,0.4081,0.4081,0.4082,0.4082,0,0,0.4226,0.4205,0.4198,0.4189,0.4171,0.4153,0.4129,0.4108,0.4096,0.408,0.4059,0.4029,0.4036,0.4023,0.4021,0.4005,0.3974,0.4014,0.4013,0.4006,0.3934,0.3928,0.3922,0.3976,0.3975,0.3975,0.3935,0,0.4185,0.4143,0.4142,0.4103,0.4083,0.4089,0.4068,0.4055,0.4049,0.403,0.4024,0.4002,0.4013,0.4005,0.399,0.3981,0.3959,0.3984,0.3957,0.3956,0.396,0.3915,0.3908,0.3872,0.393,0.3929,0.3929,0,0.4132,0.4116,0.4076,0.4062,0.4053,0.4035,0.4016,0.3998,0.3984,0.3981,0.3967,0.3969,0.3944,0.396,0.3926,0.3943,0.3933,0.3927,0.3926,0.3922,0.3939,0.3909,0.386,0.3855,0.3921,0.3921,0.3922,0,0.4099,0.4067,0.4039,0.4031,0.4015,0.4001,0.3994,0.398,0.3968,0.3952,0.3944,0.3925,0.3914,0.3899,0.3895,0.3907,0.3861,0.3877,0.3857,0.3858,0.3846,0.3847,0.3794,0.3841,0.3841,0.3841,0.3841,0,0.4053,0.4028,0.4025,0.4007,0.398,0.3979,0.3952,0.3945,0.3934,0.3915,0.3919,0.3901,0.3898,0.388,0.3876,0.3849,0.3844,0.3841,0.384,0.384,0.384,0.3832,0.3834,0.3839,0.384,0.384,0.384,0,0.4011,0.4007,0.3977,0.3965,0.3962,0.3942,0.3931,0.3915,0.3911,0.3887,0.3882,0.3874,0.3853,0.3849,0.3823,0.3821,0.3789,0.3791,0.3794,0.3794,0.3775,0.3776,0.3713,0.3705,0.3758,0.3758,0.3757,0,0.3981,0.3963,0.3949,0.3938,0.393,0.3911,0.3899,0.3898,0.3886,0.3869,0.3855,0.3835,0.3818,0.3785,0.3777,0.3758,0.3759,0.3738,0.3756,0.3757,0.3758,0.3759,0.3757,0.3734,0.3734,0.3733,0.3733,0,0.3929,0.3929,0.3912,0.3895,0.3882,0.3868,0.3855,0.3845,0.3843,0.3829,0.3808,0.3796,0.3771,0.3751,0.3732,0.3724,0.3728,0.3728,0.3722,0.3721,0.3724,0.3722,0.3784,0.3729,0.3729,0.373,0.373,0.373,0.3892,0.3876,0.3865,0.3846,0.3837,0.3825,0.381,0.3804,0.3787,0.3768,0.3768,0.3746,0.3733,0.3709,0.37,0.3683,0.3689,0.3681,0.3679,0.3676,0.3675,0.3728,0.3679,0.3679,0.368,0.368,0.368,0,0.384,0.3834,0.3817,0.3799,0.3785,0.3792,0.3779,0.3766,0.3747,0.3735,0.372,0.3697,0.3678,0.367,0.3651,0.3639,0.364,0.3634,0.3634,0.3632,0.367,0.3677,0.3633,0.3633,0.3633,0.3633,0.3633,0.3633,0.3811,0.3785,0.3784,0.3753,0.3747,0.3726,0.3717,0.3707,0.3698,0.3672,0.3657,0.3653,0.3642,0.3624,0.3607,0.3605,0.3598,0.3591,0.359,0.3625,0.3629,0.3634,0.364,0.3589,0.3589,0.3553,0.3553,0.3552]},{"header":{"parameterUnit":"m.s-1","parameterCategory":1,"la1":30.2991,"la2":30.254,"lo1":-89.0895,"lo2":-89.0444,"dy":0.0017,"dx":0.0017,"nx":28,"ny":28,"refTime":"2024-08-15T09:00:00:Z","depth":0,"parameterNumber":3,"parameterNumberName":"V-component_of_WINDS"},"data":[0,0,0,0,0,0,0,0,0,0,0,0,0,0,0,0,0,0,0,0,0,0,0,0,0,0,0,0,0,0,0,0,0,0,0,0,0,0,0,0,0,0,0,0,0,0,0,0,0,0,0,0,0,0,0,0,0,0,-1.7878,-1.7879,0,-1.7937,-1.7937,-1.7938,-1.7921,-1.792,-1.7919,-1.7917,-1.7978,-1.798,-1.7983,0,0,0,0,0,0,0,0,0,0,0,0,0,-1.7751,-1.7753,-1.7878,-1.7879,-1.7879,-1.7937,-1.7937,-1.7938,-1.7921,-1.792,-1.7918,-1.7917,-1.7977,-1.798,-1.7983,0,0,0,0,0,0,0,0,0,0,0,0,0,-1.7807,-1.7754,-1.7878,-1.7878,-1.7878,-1.7936,-1.7937,-1.7938,-1.7922,-1.792,-1.7918,-1.7916,-1.7976,-1.798,-1.7984,-1.8045,0,0,-1.7996,-1.7998,0,0,0,0,0,0,0,0,-1.7804,-1.7812,-1.7877,-1.7878,-1.7879,-1.792,-1.7915,-1.7974,-1.7922,-1.7905,-1.7917,-1.7915,-1.796,-1.7965,-1.798,-1.8048,-1.8051,-1.7996,-1.7999,-1.8001,-1.8002,0,0,0,0,0,0,0,-1.78,-1.7809,-1.7901,-1.7878,-1.7879,-1.7875,-1.7881,-1.7926,-1.7942,-1.7907,-1.7905,-1.7913,-1.796,-1.7976,-1.7981,-1.8051,-1.7996,-1.8,-1.8002,-1.8004,-1.8173,-1.8175,0,0,0,0,0,0,-1.7796,-1.7806,-1.7899,-1.7903,-1.7836,-1.7879,-1.7885,-1.7908,-1.7941,-1.7945,-1.7914,-1.7912,-1.797,-1.7977,-1.7983,-1.8058,-1.8001,-1.8004,-1.8007,-1.8171,-1.8173,-1.8175,0,0,0,0,0,0,-1.7793,-1.7804,-1.7897,-1.7854,-1.7866,-1.7883,-1.7909,-1.791,-1.7927,-1.7947,-1.795,-1.7928,-1.7969,-1.7978,-1.803,-1.806,-1.8006,-1.801,-1.8168,-1.8172,-1.8174,-1.8207,0,0,0,0,0,0,-1.7789,-1.7803,-1.7827,-1.7855,-1.7868,-1.7943,-1.7911,-1.7913,-1.7934,-1.7931,-1.7961,-1.7964,-1.7968,-1.8024,-1.8034,-1.8064,-1.8013,-1.8166,-1.817,-1.8173,-1.8204,-1.8211,-1.8217,0,0,0,0,0,-1.7785,-1.7834,-1.7828,-1.784,-1.7898,-1.7945,-1.7952,-1.7956,-1.7936,-1.796,-1.7973,-1.7963,-1.8055,-1.8029,-1.8041,-1.8073,-1.8164,-1.8169,-1.8173,-1.8201,-1.821,-1.8217,0,0,0,0,0,0,-1.7809,-1.7838,-1.7832,-1.7891,-1.7916,-1.7942,-1.7972,-1.7965,-1.7996,-1.7992,-1.7995,-1.8002,-1.8056,-1.8069,-1.8041,-1.8134,-1.8106,-1.8113,-1.8123,-1.8132,-1.8139,-1.8135,-1.8017,0,0,0,0,0,-1.7821,-1.7857,-1.788,-1.793,-1.7942,-1.7955,-1.7975,-1.7976,-1.8002,-1.8012,-1.8029,-1.8054,-1.8088,-1.8111,-1.8144,-1.8205,-1.8211,-1.8233,-1.824,-1.8245,-1.8251,-1.8285,-1.8295,-1.819,-1.819,-1.819,0,0,-1.7847,-1.7867,-1.7889,-1.7935,-1.7954,-1.7991,-1.7964,-1.8004,-1.8031,-1.8018,-1.8069,-1.8082,-1.811,-1.8167,-1.8193,-1.818,-1.8282,-1.8251,-1.8255,-1.8259,-1.8291,-1.8301,-1.831,-1.8194,-1.8193,-1.8192,0,0,-1.7913,-1.7931,-1.7975,-1.7995,-1.8024,-1.8032,-1.8042,-1.8069,-1.8078,-1.8128,-1.812,-1.8152,-1.8211,-1.8231,-1.8249,-1.8322,-1.8314,-1.8333,-1.8369,-1.8402,-1.841,-1.8418,-1.8444,-1.8454,-1.8339,-1.8339,-1.8339,0,-1.7941,-1.7996,-1.7998,-1.8039,-1.806,-1.8049,-1.8094,-1.8113,-1.8151,-1.8166,-1.815,-1.8224,-1.8242,-1.8304,-1.8322,-1.8337,-1.8349,-1.833,-1.8409,-1.8416,-1.8423,-1.8448,-1.8458,-1.8341,-1.8341,-1.8341,-1.834,0,-1.8029,-1.8067,-1.8099,-1.8137,-1.8161,-1.8203,-1.8212,-1.8236,-1.8235,-1.8244,-1.8296,-1.8318,-1.8355,-1.8369,-1.8368,-1.8431,-1.8422,-1.8408,-1.838,-1.8435,-1.8459,-1.8469,-1.8344,-1.8343,-1.8343,-1.8342,0,0,-1.8112,-1.815,-1.8162,-1.8179,-1.821,-1.824,-1.8281,-1.8318,-1.8338,-1.8365,-1.84,-1.845,-1.8437,-1.8458,-1.8459,-1.8488,-1.8544,-1.847,-1.847,-1.8483,-1.8616,-1.8627,-1.8638,-1.8539,-1.8541,-1.8542,-1.8613,0,-1.8181,-1.8255,-1.8258,-1.8326,-1.8361,-1.8351,-1.8388,-1.8411,-1.8421,-1.8452,-1.8463,-1.8499,-1.8478,-1.8491,-1.8519,-1.8532,-1.8571,-1.8526,-1.8572,-1.8574,-1.8566,-1.865,-1.8662,-1.8729,-1.8623,-1.8624,-1.8625,0,-1.8271,-1.8301,-1.8371,-1.8397,-1.8412,-1.8445,-1.8479,-1.8509,-1.8534,-1.854,-1.8562,-1.8559,-1.8602,-1.8573,-1.8632,-1.8601,-1.862,-1.8629,-1.8631,-1.8636,-1.8603,-1.8658,-1.875,-1.876,-1.864,-1.8639,-1.8638,0,-1.8325,-1.8383,-1.8432,-1.8447,-1.8479,-1.8502,-1.8516,-1.854,-1.8562,-1.8591,-1.8605,-1.8638,-1.8657,-1.8683,-1.8689,-1.8667,-1.8748,-1.8719,-1.8754,-1.8754,-1.8772,-1.8771,-1.8869,-1.8783,-1.8783,-1.8783,-1.8782,0,-1.8402,-1.8446,-1.8457,-1.8488,-1.8537,-1.854,-1.8588,-1.8601,-1.8622,-1.8655,-1.8648,-1.8679,-1.8685,-1.8717,-1.8722,-1.8771,-1.8779,-1.8784,-1.8785,-1.8786,-1.8785,-1.8798,-1.8794,-1.8785,-1.8785,-1.8784,-1.8784,0,-1.8472,-1.8481,-1.8534,-1.856,-1.8567,-1.8602,-1.8624,-1.8653,-1.8662,-1.8704,-1.8714,-1.8728,-1.8765,-1.8774,-1.8818,-1.8822,-1.8879,-1.8875,-1.8871,-1.8871,-1.8905,-1.8902,-1.9016,-1.9031,-1.8934,-1.8935,-1.8936,0,-1.852,-1.8554,-1.8583,-1.8604,-1.862,-1.8654,-1.8676,-1.8681,-1.8704,-1.8735,-1.8761,-1.8798,-1.8828,-1.8888,-1.8902,-1.8936,-1.8934,-1.8971,-1.8939,-1.8938,-1.8935,-1.8933,-1.8937,-1.8978,-1.8979,-1.8979,-1.898,0,-1.8606,-1.8609,-1.8641,-1.8675,-1.8701,-1.8727,-1.8753,-1.8771,-1.8779,-1.8805,-1.8843,-1.8866,-1.8912,-1.8949,-1.8983,-1.8997,-1.899,-1.899,-1.9,-1.9001,-1.8997,-1.9,-1.8888,-1.8988,-1.8987,-1.8986,-1.8986,-1.8986,-1.8667,-1.8697,-1.8721,-1.8757,-1.8777,-1.88,-1.8829,-1.8842,-1.8874,-1.8911,-1.8912,-1.8954,-1.8979,-1.9024,-1.904,-1.9073,-1.9061,-1.9076,-1.908,-1.9083,-1.9087,-1.8991,-1.9079,-1.9079,-1.9079,-1.9078,-1.9078,0,-1.8753,-1.8769,-1.8801,-1.8837,-1.8865,-1.8856,-1.8883,-1.8907,-1.8945,-1.8968,-1.8998,-1.9042,-1.9077,-1.9094,-1.9129,-1.9152,-1.915,-1.9161,-1.916,-1.9164,-1.9095,-1.9083,-1.9163,-1.9163,-1.9163,-1.9163,-1.9163,-1.9163,-1.8801,-1.8851,-1.8856,-1.8915,-1.893,-1.8972,-1.8988,-1.901,-1.9029,-1.9078,-1.9108,-1.9119,-1.914,-1.9176,-1.9208,-1.9212,-1.9226,-1.9239,-1.9242,-1.9177,-1.9169,-1.916,-1.9149,-1.9242,-1.9242,-1.9308,-1.9308,-1.9309]}]]